SCOUT G-1 DEB, 40216

Orbit data source: Space-Track

SCOUT G-1 DEB, 40216 is space debris in LEO originally from a launch on Fri, 14 Nov 1986 UTC launched from the Air Force Western Test Range (AFWTR). Debris objects in space refer to the collection of defunct objects orbiting the Earth. Examples of debris include non-operational satellites, rocket bodies, and fragments generated from explosions, collisions, or faulty payload assembly.

Loading next visibility...
Identifier
40216, 1986-088E
Orbit
LEO
Country
Flag of USUS
Related business
Manufacturer
Unknown
Mission
Spacecraft
Bus & Motor
Unknown
Mass
Unknown
Launch date (UTC)
1986-11-14 (39 years ago)
Launch vehicle
Unknown
Launch site
Air Force Western Test Range (AFWTR)
Object type
Payload
Rocket body
Debris
Shape & HBR
Unknown
Radar Cross Section
Small (<0.1 m²)

Expand to show TLE details & history
Last TLE update: 1 year ago

TLE from 1 year ago
0 SCOUT G-1 DEB
1 40216U 86088E   24094.03236041  .00003735  00000-0  29639-2 0  9990
2 40216  89.5872 196.3225 0056079  93.9757 266.7830 13.90368818512590
Epoch: 2024-04-03T00:46Z
TLE epoch observation values (Epoch: 2024-04-03T00:46:35.939Z)
Latitude
-0°
Longitude
-7.17698°
Altitude
932.879 km
Speed
7.384 km/s
True Right ascension
13h 05m 17s
True Declination
0° 00' 00"
Sunlit
Object was in full shadow at epoch
Visualization orbit readout
Latitude
Unknown
Longitude
Unknown
Altitude
Unknown
Speed
Unknown
Apparent Right ascension
Unknown
Apparent Declination
Unknown
Sunlit
N/A
Visualization observer readout
Local Sidereal Time
02:24:22
Azimuth
Unknown
Elevation
Unknown
Doppler factor
Unknown
Orbital elements
Apogee altitude
965.282 km
Perigee altitude
883.379 km
Semi-major axis
7,302.467 km
Eccentricity
0.00561
Inclination
89.5872°
RAAN
196.3225°
Arg. of periapsis
93.9757°
True anomaly
266.14166°
Mean anomaly
266.783°
Eccentric anomaly
266.4623°
Mean motion
3.47807 °/min
Orbital period
103.51 mins
BSTAR
0.0029639
Loading maneuver chart data...
Computing Atmospheric mass density...
Loading historical data...
Loading historical data...
Loading historical data...
Loading historical data...
Loading historical data...
Loading historical data...
Loading historical data...
Other satellites on launch #88 in the year 1986 (1986-11-14 UTC)

Documentation

Showing up to 5 results
|